Regional Weather Roundup
Issued by NWS Newport/Morehead, NC

Current Version | Previous Version | Text Only | Print | Product List | Glossary Off
Versions: 1 2 3 4 5 6 7 8 9 10 11 12 13 14 15 16 17 18 19 20 21 22 23 24 25 26 27 28 29 30 31 32 33 34 35 36 37 38 39 40 41 42 43 44 45 46 47 48 49 50
000 ASUS42 KMHX 300625 RWRMHX WEATHER ROUNDUP FOR EASTERN NORTH CAROLINA NATIONAL WEATHER SERVICE NEWPORT/MOREHEAD CITY NC 200 AM EDT SAT MAY 30 2015 NOTE: "FAIR" INDICATES FEW OR NO CLOUDS BELOW 12,000 FEET WITH NO SIGNIFICANT WEATHER AND/OR OBSTRUCTIONS TO VISIBILITY NCZ015>017-031-032-045>047-102-103-300700- NORTH COAST CITY SKY/WX TMP DP RH WIND PRES REMARKS EDENTON CLEAR 71 67 89 SE3 30.20S ELIZABETH CITY PTCLDY 70 68 93 S3 30.20F KITTY HAWK N/A 71 69 93 CALM 30.20S MANTEO PTCLDY 71 68 90 SE3 30.21S $$ NCZ045>047-081-094-103-104-300700- CENTRAL COAST CITY SKY/WX TMP DP RH WIND PRES REMARKS FRISCO CLEAR 74 64 71 SE7 30.20F SWANQUARTER N/A 73 N/A N/A SE5 30.18R $$ NCZ095-097-098-100-101-300700- SOUTHERN COAST CITY SKY/WX TMP DP RH WIND PRES REMARKS BEAUFORT CLEAR 73 66 78 SE3 30.19F CEDAR ISLAND N/A 73 N/A N/A SE7 30.24S JACKSONVILLE PTCLDY 71 67 87 S3 30.18F PINEY ISLAND CLEAR N/A N/A N/A SE5 30.19F WILMINGTON CLEAR 72 67 84 CALM 30.18F $$ NCZ011>013-027>030-043-044-078>080-089-090>093-098-300700- COASTAL PLAIN CITY SKY/WX TMP DP RH WIND PRES REMARKS AHOSKIE CLEAR 67 66 95 CALM 30.20S CLINTON CLEAR 69 68 97 CALM 30.19S ELIZABETHTOWN CLEAR 67 65 94 CALM 30.18F GOLDSBORO CLEAR 69 67 91 CALM 30.17F GREENVILLE CLEAR 70 68 94 S3 30.21S HAVELOCK CLEAR 67 65 93 CALM 30.20F KENANSVILLE PTCLDY 64 63 94 CALM 30.20S KINSTON CLEAR 70 67 92 SE3 30.20F NEW BERN CLEAR 67 63 87 CALM 30.21S RICHLANDS MOCLDY 66 63 88 CALM 30.19F ROCKY MOUNT MOCLDY 71 67 87 S3 30.20F WASHINGTON CLEAR 69 66 89 CALM 30.20S WHITEVILLE MOCLDY 69 66 91 CALM 30.18S $$ AMZ130-135-150-152-154-156-158-170-250-252-270-ANZ085-086-088-633-658-670-300700- MARINE OBSERVATIONS STATION/POSITION TIME TEMP WIND PRES WAVE SWELL AIR SEA DIR/SP/G HT/PER HT/PER (UTC) (F) (DEG/KT/KT) (MB) (FT/S) (FT/S) CHESAPEAKE LIGHT 0600 69 150/ 14/ 14 1023.4 64 E VA BEACH 0550 68 66 120/ 6/ 6 1022.7 3/ 8 3/ 8 DUCK 0600 68 59 140/ 5/ 5 1022.0 2 E DUCK 0511 65 N/A 3/ 9 OREGON INLET 0600 72 75 140/ 4/ 6 1022.7 13E OREGON INLT 0600 75 N/A 4/ 9 HATTERAS CG 0600 75 78 140/ 6/ 8 1022.2 DIAMOND BUOY 0550 76 80 140/ 10/ 12 1022.7 4/ 8 3/ 8 CAPE LOOKOUT 0600 75 130/ 8/ 9 1021.9 BEAUFORT LAB 0600 74 77 140/ 5/ 7 1021.4 27 SE WRIGHTSVLE 0600 75 140/ 8/ 10 N/A 5 SE WRIGHTSVLE NOT AVBL 225 S CAPE HAT 0550 74 74 90/ 14/ 16 1021.1 6/ 9 5/ 9 41 SE CHARLESTON 0550 77 78 90/ 14/ 16 1020.2 5/ 9 3/ 9 $$

USA.gov is the U.S. government's official web portal to all federal, state and local government web resources and services.